This is the latest recevied weather packets stored in our database for station/object KE8RXN. If no packets are shown the sender has not sent any weather packets the latest 10 day(s).
| Time | Temp. | Humidity | Pressure | Rain* | Wind** | Luminosity | Snow |
|---|---|---|---|---|---|---|---|
| 1777511585 | 6.11° C | 94% | 1017.8 hPa | 0 mm | - | 0 W/m² | - |
| 1777511283 | 6.11° C | 95% | 1017.6 hPa | 0 mm | - | 0 W/m² | - |
| 1777510978 | 6.11° C | 95% | 1017.7 hPa | 0 mm | - | 0 W/m² | - |
| 1777510675 | 6.11° C | 95% | 1017.4 hPa | 0 mm | - | 0 W/m² | - |
| 1777510371 | 6.11° C | 95% | 1017.4 hPa | 0 mm | - | 0 W/m² | - |
| 1777510067 | 6.67° C | 94% | 1017.6 hPa | 0 mm | - | 0 W/m² | - |
| 1777509764 | 6.67° C | 94% | 1017.4 hPa | 0 mm | - | 0 W/m² | - |
| 1777509459 | 6.11° C | 94% | 1017.3 hPa | 0 mm | - | 0 W/m² | - |
| 1777509158 | 6.11° C | 94% | 1017.3 hPa | 0 mm | - | 0 W/m² | - |
| 1777508854 | 6.11° C | 95% | 1017.2 hPa | 0 mm | - | 0 W/m² | - |
| 1777508551 | 6.11° C | 95% | 1017.3 hPa | 0 mm | - | 1 W/m² | - |
| 1777508248 | 6.67° C | 94% | 1017.1 hPa | 0 mm | - | 1 W/m² | - |
| 1777507946 | 6.67° C | 94% | 1017.2 hPa | 0 mm | - | 2 W/m² | - |
| 1777507642 | 6.67° C | 94% | 1017.1 hPa | 0 mm | - | 1 W/m² | - |
| 1777507339 | 6.67° C | 93% | 1017.1 hPa | 0 mm | - | 3 W/m² | - |
| 1777507036 | 6.67° C | 93% | 1017 hPa | 0 mm | - | 3 W/m² | - |
| 1777506734 | 6.67° C | 93% | 1016.9 hPa | 0 mm | - | 4 W/m² | - |
| 1777506430 | 6.67° C | 93% | 1016.8 hPa | 0 mm | - | 4 W/m² | - |
| 1777506126 | 6.67° C | 93% | 1016.8 hPa | 0 mm | - | 5 W/m² | - |
| 1777505821 | 6.67° C | 93% | 1016.9 hPa | 0 mm | - | 5 W/m² | - |
| 1777505518 | 6.67° C | 93% | 1016.9 hPa | 0 mm | - | 4 W/m² | - |
| 1777505215 | 6.67° C | 93% | 1016.8 hPa | 0 mm | - | 7 W/m² | - |
| 1777504912 | 6.67° C | 93% | 1016.8 hPa | 0 mm | - | 8 W/m² | - |
| 1777504609 | 7.22° C | 93% | 1016.8 hPa | 0 mm | - | 6 W/m² | - |
| 1777504305 | 7.22° C | 93% | 1016.8 hPa | 0 mm | - | 7 W/m² | - |
* Rain latest hour (hover to see other rain measurements)
** Current wind speed in m/s (hover to see current wind gust speed)